Year,Month,Day,Hour,Minute,Value (Times are PST for temperature in C)
2014,09,21,00,00,11.80
2014,09,21,00,01,11.80
2014,09,21,00,02,11.90
2014,09,21,00,03,11.90
2014,09,21,00,04,11.90
2014,09,21,00,05,11.90
2014,09,21,00,06,12.00
2014,09,21,00,07,12.00
2014,09,21,00,08,12.00
2014,09,21,00,09,12.00
2014,09,21,00,10,12.00
2014,09,21,00,11,12.00
2014,09,21,00,12,12.00
2014,09,21,00,13,12.00
2014,09,21,00,14,12.00
2014,09,21,00,15,11.90
2014,09,21,00,16,11.90
2014,09,21,00,17,11.90
2014,09,21,00,18,11.80
2014,09,21,00,19,11.80
2014,09,21,00,20,11.70
2014,09,21,00,21,11.70
2014,09,21,00,22,11.70
2014,09,21,00,23,11.70
2014,09,21,00,24,11.70
2014,09,21,00,25,11.70
2014,09,21,00,26,11.70
2014,09,21,00,27,11.70
2014,09,21,00,28,11.70
2014,09,21,00,29,11.70
2014,09,21,00,30,11.60
2014,09,21,00,31,11.60
2014,09,21,00,32,11.60
2014,09,21,00,33,11.60
2014,09,21,00,34,11.60
2014,09,21,00,35,11.60
2014,09,21,00,36,11.60
2014,09,21,00,37,11.60
2014,09,21,00,38,11.60
2014,09,21,00,39,11.60
2014,09,21,00,40,11.60
2014,09,21,00,41,11.60
2014,09,21,00,42,11.60
2014,09,21,00,43,11.60
2014,09,21,00,44,11.60
2014,09,21,00,45,11.50
2014,09,21,00,46,11.50
2014,09,21,00,47,11.50
2014,09,21,00,48,11.50
2014,09,21,00,49,11.50
2014,09,21,00,50,11.50
2014,09,21,00,51,11.40
2014,09,21,00,52,11.40
2014,09,21,00,53,11.40
2014,09,21,00,54,11.40
2014,09,21,00,55,11.40
2014,09,21,00,56,11.40
2014,09,21,00,57,11.40
2014,09,21,00,58,11.40
2014,09,21,00,59,11.40
2014,09,21,01,00,11.30
2014,09,21,01,01,11.30
2014,09,21,01,02,11.30
2014,09,21,01,03,11.30
2014,09,21,01,04,11.30
2014,09,21,01,05,11.30
2014,09,21,01,06,11.30
2014,09,21,01,07,11.30
2014,09,21,01,08,11.30
2014,09,21,01,09,11.30
2014,09,21,01,10,11.30
2014,09,21,01,11,11.30
2014,09,21,01,12,11.30
2014,09,21,01,13,11.20
2014,09,21,01,14,11.20
2014,09,21,01,15,11.20
2014,09,21,01,16,11.20
2014,09,21,01,17,11.20
2014,09,21,01,18,11.20
2014,09,21,01,19,11.10
2014,09,21,01,20,11.10
2014,09,21,01,21,11.10
2014,09,21,01,22,11.10
2014,09,21,01,23,11.10
2014,09,21,01,24,11.10
2014,09,21,01,25,11.10
2014,09,21,01,26,11.10
2014,09,21,01,27,11.10
2014,09,21,01,28,11.10
2014,09,21,01,29,11.10
2014,09,21,01,30,11.10
2014,09,21,01,31,11.10
2014,09,21,01,32,11.10
2014,09,21,01,33,11.10
2014,09,21,01,34,11.10
2014,09,21,01,35,11.10
2014,09,21,01,36,11.10
2014,09,21,01,37,11.00
2014,09,21,01,38,11.00
2014,09,21,01,39,11.00
2014,09,21,01,40,11.00
2014,09,21,01,41,11.00
2014,09,21,01,42,11.00
2014,09,21,01,43,11.00
2014,09,21,01,44,11.00
2014,09,21,01,45,11.00
2014,09,21,01,46,10.90
2014,09,21,01,47,10.90
2014,09,21,01,48,10.90
2014,09,21,01,49,10.90
2014,09,21,01,50,10.90
2014,09,21,01,51,10.90
2014,09,21,01,52,10.90
2014,09,21,01,53,10.90
2014,09,21,01,54,10.90
2014,09,21,01,55,10.90
2014,09,21,01,56,11.00
2014,09,21,01,57,11.00
2014,09,21,01,58,10.90
2014,09,21,01,59,10.90
2014,09,21,02,00,10.90
2014,09,21,02,01,10.90
2014,09,21,02,02,10.90
2014,09,21,02,03,10.90
2014,09,21,02,04,10.90
2014,09,21,02,05,10.90
2014,09,21,02,06,10.90
2014,09,21,02,07,10.80
2014,09,21,02,08,10.80
2014,09,21,02,09,10.90
2014,09,21,02,10,10.90
2014,09,21,02,11,10.90
2014,09,21,02,12,10.90
2014,09,21,02,13,10.90
2014,09,21,02,14,10.90
2014,09,21,02,15,10.90
2014,09,21,02,16,10.90
2014,09,21,02,17,10.90
2014,09,21,02,18,10.90
2014,09,21,02,19,10.90
2014,09,21,02,20,10.90
2014,09,21,02,21,10.90
2014,09,21,02,22,10.90
2014,09,21,02,23,10.80
2014,09,21,02,24,10.80
2014,09,21,02,25,10.80
2014,09,21,02,26,10.80
2014,09,21,02,27,10.80
2014,09,21,02,28,10.80
2014,09,21,02,29,10.80
2014,09,21,02,30,10.80
2014,09,21,02,31,10.80
2014,09,21,02,32,10.80
2014,09,21,02,33,10.80
2014,09,21,02,34,10.80
2014,09,21,02,35,10.80
2014,09,21,02,36,10.80
2014,09,21,02,37,10.70
2014,09,21,02,38,10.70
2014,09,21,02,39,10.70
2014,09,21,02,40,10.70
2014,09,21,02,41,10.70
2014,09,21,02,42,10.70
2014,09,21,02,43,10.70
2014,09,21,02,44,10.70
2014,09,21,02,45,10.70
2014,09,21,02,46,10.70
2014,09,21,02,47,10.70
2014,09,21,02,48,10.70
2014,09,21,02,49,10.70
2014,09,21,02,50,10.70
2014,09,21,02,51,10.70
2014,09,21,02,52,10.70
2014,09,21,02,53,10.70
2014,09,21,02,54,10.70
2014,09,21,02,55,10.70
2014,09,21,02,56,10.70
2014,09,21,02,57,10.70
2014,09,21,02,58,10.70
2014,09,21,02,59,10.70
2014,09,21,03,00,10.70
2014,09,21,03,01,10.70
2014,09,21,03,02,10.70
2014,09,21,03,03,10.70
2014,09,21,03,04,10.70
2014,09,21,03,05,10.70
2014,09,21,03,06,10.70
2014,09,21,03,07,10.60
2014,09,21,03,08,10.60
2014,09,21,03,09,10.60
2014,09,21,03,10,10.60
2014,09,21,03,11,10.60
2014,09,21,03,12,10.60
2014,09,21,03,13,10.60
2014,09,21,03,14,10.60
2014,09,21,03,15,10.60
2014,09,21,03,16,10.60
2014,09,21,03,17,10.60
2014,09,21,03,18,10.70
2014,09,21,03,19,10.70
2014,09,21,03,20,10.70
2014,09,21,03,21,10.70
2014,09,21,03,22,10.70
2014,09,21,03,23,10.70
2014,09,21,03,24,10.70
2014,09,21,03,25,10.70
2014,09,21,03,26,10.80
2014,09,21,03,27,10.90
2014,09,21,03,28,10.90
2014,09,21,03,29,10.90
2014,09,21,03,30,10.90
2014,09,21,03,31,10.90
2014,09,21,03,32,10.90
2014,09,21,03,33,10.90
2014,09,21,03,34,10.90
2014,09,21,03,35,10.80
2014,09,21,03,36,10.80
2014,09,21,03,37,10.80
2014,09,21,03,38,10.80
2014,09,21,03,39,10.70
2014,09,21,03,40,10.70
2014,09,21,03,41,10.70
2014,09,21,03,42,10.70
2014,09,21,03,43,10.70
2014,09,21,03,44,10.70
2014,09,21,03,45,10.70
2014,09,21,03,46,10.70
2014,09,21,03,47,10.70
2014,09,21,03,48,10.70
2014,09,21,03,49,10.70
2014,09,21,03,50,10.70
2014,09,21,03,51,10.70
2014,09,21,03,52,10.60
2014,09,21,03,53,10.60
2014,09,21,03,54,10.60
2014,09,21,03,55,10.60
2014,09,21,03,56,10.60
2014,09,21,03,57,10.70
2014,09,21,03,58,10.70
2014,09,21,03,59,10.80
2014,09,21,04,00,10.80
2014,09,21,04,01,10.90
2014,09,21,04,02,10.90
2014,09,21,04,03,11.00
2014,09,21,04,04,11.00
2014,09,21,04,05,11.00
2014,09,21,04,06,11.10
2014,09,21,04,07,11.10
2014,09,21,04,08,11.10
2014,09,21,04,09,11.10
2014,09,21,04,10,11.10
2014,09,21,04,11,11.10
2014,09,21,04,12,11.10
2014,09,21,04,13,11.10
2014,09,21,04,14,11.10
2014,09,21,04,15,11.10
2014,09,21,04,16,11.10
2014,09,21,04,17,11.10
2014,09,21,04,18,11.10
2014,09,21,04,19,11.10
2014,09,21,04,20,11.10
2014,09,21,04,21,11.10
2014,09,21,04,22,11.10
2014,09,21,04,23,11.10
2014,09,21,04,24,11.10
2014,09,21,04,25,11.10
2014,09,21,04,26,11.10
2014,09,21,04,27,11.10
2014,09,21,04,28,11.10
2014,09,21,04,29,11.20
2014,09,21,04,30,11.20
2014,09,21,04,31,11.30
2014,09,21,04,32,11.30
2014,09,21,04,33,11.30
2014,09,21,04,34,11.30
2014,09,21,04,35,11.20
2014,09,21,04,36,11.20
2014,09,21,04,37,11.20
2014,09,21,04,38,11.10
2014,09,21,04,39,11.10
2014,09,21,04,40,11.10
2014,09,21,04,41,11.10
2014,09,21,04,42,11.00
2014,09,21,04,43,11.00
2014,09,21,04,44,11.00
2014,09,21,04,45,11.00
2014,09,21,04,46,11.10
2014,09,21,04,47,11.10
2014,09,21,04,48,11.10
2014,09,21,04,49,11.10
2014,09,21,04,50,11.20
2014,09,21,04,51,11.20
2014,09,21,04,52,11.20
2014,09,21,04,53,11.20
2014,09,21,04,54,11.20
2014,09,21,04,55,11.20
2014,09,21,04,56,11.20
2014,09,21,04,57,11.20
2014,09,21,04,58,11.20
2014,09,21,04,59,11.20
2014,09,21,05,00,11.20
2014,09,21,05,01,11.20
2014,09,21,05,02,11.20
2014,09,21,05,03,11.20
2014,09,21,05,04,11.10
2014,09,21,05,05,11.10
2014,09,21,05,06,11.10
2014,09,21,05,07,11.00
2014,09,21,05,08,11.00
2014,09,21,05,09,10.90
2014,09,21,05,10,10.90
2014,09,21,05,11,10.90
2014,09,21,05,12,10.90
2014,09,21,05,13,10.90
2014,09,21,05,14,10.80
2014,09,21,05,15,10.80
2014,09,21,05,16,10.80
2014,09,21,05,17,10.80
2014,09,21,05,18,10.80
2014,09,21,05,19,10.70
2014,09,21,05,20,10.70
2014,09,21,05,21,10.70
2014,09,21,05,22,10.60
2014,09,21,05,23,10.60
2014,09,21,05,24,10.50
2014,09,21,05,25,10.50
2014,09,21,05,26,10.40
2014,09,21,05,27,10.40
2014,09,21,05,28,10.40
2014,09,21,05,29,10.30
2014,09,21,05,30,10.30
2014,09,21,05,31,10.30
2014,09,21,05,32,10.30
2014,09,21,05,33,10.30
2014,09,21,05,34,10.30
2014,09,21,05,35,10.30
2014,09,21,05,36,10.30
2014,09,21,05,37,10.30
2014,09,21,05,38,10.30
2014,09,21,05,39,10.20
2014,09,21,05,40,10.20
2014,09,21,05,41,10.20
2014,09,21,05,42,10.20
2014,09,21,05,43,10.20
2014,09,21,05,44,10.20
2014,09,21,05,45,10.20
2014,09,21,05,46,10.20
2014,09,21,05,47,10.10
2014,09,21,05,48,10.10
2014,09,21,05,49,10.10
2014,09,21,05,50,10.10
2014,09,21,05,51,10.10
2014,09,21,05,52,10.10
2014,09,21,05,53,10.10
2014,09,21,05,54,10.10
2014,09,21,05,55,10.00
2014,09,21,05,56,10.00
2014,09,21,05,57,10.00
2014,09,21,05,58,10.00
2014,09,21,05,59,9.90
2014,09,21,06,00,9.90
2014,09,21,06,01,9.90
2014,09,21,06,02,9.90
2014,09,21,06,03,9.90
2014,09,21,06,04,9.90
2014,09,21,06,05,9.90
2014,09,21,06,06,9.90
2014,09,21,06,07,9.90
2014,09,21,06,08,9.90
2014,09,21,06,09,9.90
2014,09,21,06,10,9.90
2014,09,21,06,11,9.90
2014,09,21,06,12,9.90
2014,09,21,06,13,9.90
2014,09,21,06,14,10.00
2014,09,21,06,15,10.00
2014,09,21,06,16,10.00
2014,09,21,06,17,10.00
2014,09,21,06,18,10.00
2014,09,21,06,19,9.90
2014,09,21,06,20,9.90
2014,09,21,06,21,9.90
2014,09,21,06,22,9.90
2014,09,21,06,23,9.90
2014,09,21,06,24,9.90
2014,09,21,06,25,9.90
2014,09,21,06,26,9.90
2014,09,21,06,27,9.90
2014,09,21,06,28,9.90
2014,09,21,06,29,9.90
2014,09,21,06,30,9.90
2014,09,21,06,31,9.90
2014,09,21,06,32,9.90
2014,09,21,06,33,9.80
2014,09,21,06,34,9.80
2014,09,21,06,35,9.80
2014,09,21,06,36,9.80
2014,09,21,06,37,9.90
2014,09,21,06,38,9.90
2014,09,21,06,39,9.80
2014,09,21,06,40,9.80
2014,09,21,06,41,9.80
2014,09,21,06,42,9.80
2014,09,21,06,43,9.90
2014,09,21,06,44,9.90
2014,09,21,06,45,9.90
2014,09,21,06,46,9.90
2014,09,21,06,47,9.90
2014,09,21,06,48,9.90
2014,09,21,06,49,9.90
2014,09,21,06,50,9.90
2014,09,21,06,51,9.90
2014,09,21,06,52,9.90
2014,09,21,06,53,9.90
2014,09,21,06,54,10.00
2014,09,21,06,55,9.90
2014,09,21,06,56,10.00
2014,09,21,06,57,10.00
2014,09,21,06,58,9.90
2014,09,21,06,59,9.90
2014,09,21,07,00,9.90
2014,09,21,07,01,9.90
2014,09,21,07,02,9.90
2014,09,21,07,03,9.90
2014,09,21,07,04,9.90
2014,09,21,07,05,9.90
2014,09,21,07,06,9.90
2014,09,21,07,07,9.80
2014,09,21,07,08,9.80
2014,09,21,07,09,9.80
2014,09,21,07,10,9.80
2014,09,21,07,11,9.80
2014,09,21,07,12,9.80
2014,09,21,07,13,9.90
2014,09,21,07,14,9.90
2014,09,21,07,15,9.90
2014,09,21,07,16,9.90
2014,09,21,07,17,9.90
2014,09,21,07,18,9.90
2014,09,21,07,19,9.90
2014,09,21,07,20,9.90
2014,09,21,07,21,9.90
2014,09,21,07,22,9.90
2014,09,21,07,23,9.90
2014,09,21,07,24,9.90
2014,09,21,07,25,10.00
2014,09,21,07,26,10.00
2014,09,21,07,27,10.00
2014,09,21,07,28,10.00
2014,09,21,07,29,10.00
2014,09,21,07,30,10.00
2014,09,21,07,31,10.10
2014,09,21,07,32,10.10
2014,09,21,07,33,10.10
2014,09,21,07,34,10.10
2014,09,21,07,35,10.10
2014,09,21,07,36,10.10
2014,09,21,07,37,10.20
2014,09,21,07,38,10.20
2014,09,21,07,39,10.20
2014,09,21,07,40,10.20
2014,09,21,07,41,10.20
2014,09,21,07,42,10.30
2014,09,21,07,43,10.30
2014,09,21,07,44,10.30
2014,09,21,07,45,10.30
2014,09,21,07,46,10.30
2014,09,21,07,47,10.30
2014,09,21,07,48,10.40
2014,09,21,07,49,10.40
2014,09,21,07,50,10.40
2014,09,21,07,51,10.50
2014,09,21,07,52,10.50
2014,09,21,07,53,10.50
2014,09,21,07,54,10.60
2014,09,21,07,55,10.70
2014,09,21,07,56,10.70
2014,09,21,07,57,10.80
2014,09,21,07,58,10.80
2014,09,21,07,59,10.90
2014,09,21,08,00,11.00
2014,09,21,08,01,11.10
2014,09,21,08,02,11.10
2014,09,21,08,03,11.20
2014,09,21,08,04,11.30
2014,09,21,08,05,11.40
2014,09,21,08,06,11.50
2014,09,21,08,07,11.60
2014,09,21,08,08,11.60
2014,09,21,08,09,11.70
2014,09,21,08,10,11.80
2014,09,21,08,11,11.90
2014,09,21,08,12,11.90
2014,09,21,08,13,12.00
2014,09,21,08,14,12.10
2014,09,21,08,15,12.20
2014,09,21,08,16,12.30
2014,09,21,08,17,12.30
2014,09,21,08,18,12.40
2014,09,21,08,19,12.50
2014,09,21,08,20,12.50
2014,09,21,08,21,12.60
2014,09,21,08,22,12.70
2014,09,21,08,23,12.80
2014,09,21,08,24,12.80
2014,09,21,08,25,12.90
2014,09,21,08,26,13.10
2014,09,21,08,27,13.20
2014,09,21,08,28,13.30
2014,09,21,08,29,13.40
2014,09,21,08,30,13.60
2014,09,21,08,31,13.70
2014,09,21,08,32,13.90
2014,09,21,08,33,14.00
2014,09,21,08,34,14.10
2014,09,21,08,35,14.30
2014,09,21,08,36,14.40
2014,09,21,08,37,14.50
2014,09,21,08,38,14.70
2014,09,21,08,39,14.80
2014,09,21,08,40,14.90
2014,09,21,08,41,15.00
2014,09,21,08,42,15.20
2014,09,21,08,43,15.30
2014,09,21,08,44,15.40
2014,09,21,08,45,15.50
2014,09,21,08,46,15.60
2014,09,21,08,47,15.70
2014,09,21,08,48,15.80
2014,09,21,08,49,15.90
2014,09,21,08,50,16.00
2014,09,21,08,51,16.10
2014,09,21,08,52,16.20
2014,09,21,08,53,16.20
2014,09,21,08,54,16.30
2014,09,21,08,55,16.40
2014,09,21,08,56,16.40
2014,09,21,08,57,16.50
2014,09,21,08,58,16.60
2014,09,21,08,59,16.70
2014,09,21,09,00,16.70
2014,09,21,09,01,16.80
2014,09,21,09,02,16.90
2014,09,21,09,03,17.00
2014,09,21,09,04,17.00
2014,09,21,09,05,17.10
2014,09,21,09,06,17.10
2014,09,21,09,07,17.20
2014,09,21,09,08,17.20
2014,09,21,09,09,17.30
2014,09,21,09,10,17.30
2014,09,21,09,11,17.40
2014,09,21,09,12,17.50
2014,09,21,09,13,17.50
2014,09,21,09,14,17.60
2014,09,21,09,15,17.60
2014,09,21,09,16,17.60
2014,09,21,09,17,17.60
2014,09,21,09,18,17.60
2014,09,21,09,19,17.60
2014,09,21,09,20,17.60
2014,09,21,09,21,17.60
2014,09,21,09,22,17.60
2014,09,21,09,23,17.60
2014,09,21,09,24,17.60
2014,09,21,09,25,17.60
2014,09,21,09,26,17.60
2014,09,21,09,27,17.60
2014,09,21,09,28,17.60
2014,09,21,09,29,17.60
2014,09,21,09,30,17.60
2014,09,21,09,31,17.60
2014,09,21,09,32,17.60
2014,09,21,09,33,17.60
2014,09,21,09,34,17.60
2014,09,21,09,35,17.70
2014,09,21,09,36,17.70
2014,09,21,09,37,17.70
2014,09,21,09,38,17.70
2014,09,21,09,39,17.80
2014,09,21,09,40,17.80
2014,09,21,09,41,17.90
2014,09,21,09,42,17.90
2014,09,21,09,43,17.90
2014,09,21,09,44,17.80
2014,09,21,09,45,17.80
2014,09,21,09,46,17.80
2014,09,21,09,47,17.80
2014,09,21,09,48,17.80
2014,09,21,09,49,17.80
2014,09,21,09,50,17.70
2014,09,21,09,51,17.70
2014,09,21,09,52,17.70
2014,09,21,09,53,17.70
2014,09,21,09,54,17.60
2014,09,21,09,55,17.60
2014,09,21,09,56,17.60
2014,09,21,09,57,17.60
2014,09,21,09,58,17.60
2014,09,21,09,59,17.60
2014,09,21,10,00,17.60
2014,09,21,10,01,17.70
2014,09,21,10,02,17.70
2014,09,21,10,03,17.80
2014,09,21,10,04,17.90
2014,09,21,10,05,17.90
2014,09,21,10,06,17.90
2014,09,21,10,07,17.90
2014,09,21,10,08,17.90
2014,09,21,10,09,17.90
2014,09,21,10,10,17.90
2014,09,21,10,11,17.90
2014,09,21,10,12,17.90
2014,09,21,10,13,17.90
2014,09,21,10,14,17.90
2014,09,21,10,15,17.90
2014,09,21,10,16,18.00
2014,09,21,10,17,18.00
2014,09,21,10,18,18.10
2014,09,21,10,19,18.10
2014,09,21,10,20,18.20
2014,09,21,10,21,18.20
2014,09,21,10,22,18.20
2014,09,21,10,23,18.30
2014,09,21,10,24,18.40
2014,09,21,10,25,18.40
2014,09,21,10,26,18.40
2014,09,21,10,27,18.50
2014,09,21,10,28,18.50
2014,09,21,10,29,18.50
2014,09,21,10,30,18.60
2014,09,21,10,31,18.60
2014,09,21,10,32,18.70
2014,09,21,10,33,18.70
2014,09,21,10,34,18.80
2014,09,21,10,35,18.90
2014,09,21,10,36,19.00
2014,09,21,10,37,19.10
2014,09,21,10,38,19.20
2014,09,21,10,39,19.20
2014,09,21,10,40,19.10
2014,09,21,10,41,19.10
2014,09,21,10,42,19.00
2014,09,21,10,43,19.00
2014,09,21,10,44,18.90
2014,09,21,10,45,19.00
2014,09,21,10,46,19.00
2014,09,21,10,47,19.00
2014,09,21,10,48,19.10
2014,09,21,10,49,19.00
2014,09,21,10,50,19.00
2014,09,21,10,51,18.90
2014,09,21,10,52,18.90
2014,09,21,10,53,18.90
2014,09,21,10,54,18.80
2014,09,21,10,55,18.80
2014,09,21,10,56,18.80
2014,09,21,10,57,18.70
2014,09,21,10,58,18.70
2014,09,21,10,59,18.70
2014,09,21,11,00,18.70
2014,09,21,11,01,18.80
2014,09,21,11,02,18.80
2014,09,21,11,03,18.80
2014,09,21,11,04,18.80
2014,09,21,11,05,18.80
2014,09,21,11,06,18.80
2014,09,21,11,07,18.80
2014,09,21,11,08,18.70
2014,09,21,11,09,18.70
2014,09,21,11,10,18.80
2014,09,21,11,11,18.80
2014,09,21,11,12,18.90
2014,09,21,11,13,18.90
2014,09,21,11,14,19.00
2014,09,21,11,15,19.00
2014,09,21,11,16,19.00
2014,09,21,11,17,19.00
2014,09,21,11,18,19.00
2014,09,21,11,19,19.10
2014,09,21,11,20,19.20
2014,09,21,11,21,19.20
2014,09,21,11,22,19.40
2014,09,21,11,23,19.70
2014,09,21,11,24,19.90
2014,09,21,11,25,20.10
2014,09,21,11,26,20.30
2014,09,21,11,27,20.40
2014,09,21,11,28,20.60
2014,09,21,11,29,20.70
2014,09,21,11,30,20.90
2014,09,21,11,31,21.10
2014,09,21,11,32,21.20
2014,09,21,11,33,21.50
2014,09,21,11,34,21.80
2014,09,21,11,35,22.10
2014,09,21,11,36,22.40
2014,09,21,11,37,22.70
2014,09,21,11,38,23.00
2014,09,21,11,39,23.40
2014,09,21,11,40,23.60
2014,09,21,11,41,23.80
2014,09,21,11,42,24.00
2014,09,21,11,43,24.20
2014,09,21,11,44,24.30
2014,09,21,11,45,24.40
2014,09,21,11,46,24.50
2014,09,21,11,47,24.60
2014,09,21,11,48,24.70
2014,09,21,11,49,24.80
2014,09,21,11,50,24.90
2014,09,21,11,51,25.00
2014,09,21,11,52,25.10
2014,09,21,11,53,25.20
2014,09,21,11,54,25.30
2014,09,21,11,55,25.30
2014,09,21,11,56,25.40
2014,09,21,11,57,25.40
2014,09,21,11,58,25.40
2014,09,21,11,59,25.40
2014,09,21,12,00,25.40
2014,09,21,12,01,25.30
2014,09,21,12,02,25.20
2014,09,21,12,03,25.20
2014,09,21,12,04,25.20
2014,09,21,12,05,25.10
2014,09,21,12,06,25.00
2014,09,21,12,07,25.00
2014,09,21,12,08,25.00
2014,09,21,12,09,25.00
2014,09,21,12,10,24.90
2014,09,21,12,11,24.80
2014,09,21,12,12,24.80
2014,09,21,12,13,24.70
2014,09,21,12,14,24.60
2014,09,21,12,15,24.50
2014,09,21,12,16,24.40
2014,09,21,12,17,24.40
2014,09,21,12,18,24.40
2014,09,21,12,19,24.30
2014,09,21,12,20,24.40
2014,09,21,12,21,24.40
2014,09,21,12,22,24.40
2014,09,21,12,23,24.40
2014,09,21,12,24,24.50
2014,09,21,12,25,24.50
2014,09,21,12,26,24.60
2014,09,21,12,27,24.50
2014,09,21,12,28,24.40
2014,09,21,12,29,24.40
2014,09,21,12,30,24.40
2014,09,21,12,31,24.30
2014,09,21,12,32,24.30
2014,09,21,12,33,24.30
2014,09,21,12,34,24.30
2014,09,21,12,35,24.30
2014,09,21,12,36,24.30
2014,09,21,12,37,24.30
2014,09,21,12,38,24.40
2014,09,21,12,39,24.40
2014,09,21,12,40,24.50
2014,09,21,12,41,24.60
2014,09,21,12,42,24.70
2014,09,21,12,43,24.80
2014,09,21,12,44,24.80
2014,09,21,12,45,24.90
2014,09,21,12,46,25.10
2014,09,21,12,47,25.20
2014,09,21,12,48,25.30
2014,09,21,12,49,25.50
2014,09,21,12,50,25.60
2014,09,21,12,51,25.70
2014,09,21,12,52,25.80
2014,09,21,12,53,25.90
2014,09,21,12,54,25.90
2014,09,21,12,55,26.00
2014,09,21,12,56,26.00
2014,09,21,12,57,26.00
2014,09,21,12,58,26.10
2014,09,21,12,59,26.10
2014,09,21,13,00,26.10
2014,09,21,13,01,26.10
2014,09,21,13,02,26.20
2014,09,21,13,03,26.10
2014,09,21,13,04,26.10
2014,09,21,13,05,26.00
2014,09,21,13,06,25.90
2014,09,21,13,07,25.90
2014,09,21,13,08,25.80
2014,09,21,13,09,25.80
2014,09,21,13,10,25.70
2014,09,21,13,11,25.80
2014,09,21,13,12,25.80
2014,09,21,13,13,25.80
2014,09,21,13,14,25.80
2014,09,21,13,15,25.90
2014,09,21,13,16,25.90
2014,09,21,13,17,25.90
2014,09,21,13,18,25.90
2014,09,21,13,19,25.90
2014,09,21,13,20,25.90
2014,09,21,13,21,26.00
2014,09,21,13,22,26.00
2014,09,21,13,23,26.00
2014,09,21,13,24,26.00
2014,09,21,13,25,26.00
2014,09,21,13,26,25.90
2014,09,21,13,27,25.80
2014,09,21,13,28,25.60
2014,09,21,13,29,25.40
2014,09,21,13,30,25.20
2014,09,21,13,31,25.00
2014,09,21,13,32,24.70
2014,09,21,13,33,24.40
2014,09,21,13,34,24.20
2014,09,21,13,35,23.90
2014,09,21,13,36,23.60
2014,09,21,13,37,23.40
2014,09,21,13,38,23.20
2014,09,21,13,39,23.00
2014,09,21,13,40,22.80
2014,09,21,13,41,22.70
2014,09,21,13,42,22.60
2014,09,21,13,43,22.40
2014,09,21,13,44,22.30
2014,09,21,13,45,22.20
2014,09,21,13,46,22.20
2014,09,21,13,47,22.10
2014,09,21,13,48,22.10
2014,09,21,13,49,22.10
2014,09,21,13,50,22.10
2014,09,21,13,51,22.10
2014,09,21,13,52,22.20
2014,09,21,13,53,22.30
2014,09,21,13,54,22.30
2014,09,21,13,55,22.40
2014,09,21,13,56,22.40
2014,09,21,13,57,22.50
2014,09,21,13,58,22.60
2014,09,21,13,59,22.60
2014,09,21,14,00,22.70
2014,09,21,14,01,22.80
2014,09,21,14,02,22.90
2014,09,21,14,03,22.90
2014,09,21,14,04,23.00
2014,09,21,14,05,23.00
2014,09,21,14,06,23.10
2014,09,21,14,07,23.10
2014,09,21,14,08,23.20
2014,09,21,14,09,23.20
2014,09,21,14,10,23.30
2014,09,21,14,11,23.30
2014,09,21,14,12,23.40
2014,09,21,14,13,23.40
2014,09,21,14,14,23.50
2014,09,21,14,15,23.60
2014,09,21,14,16,23.70
2014,09,21,14,17,23.80
2014,09,21,14,18,23.90
2014,09,21,14,19,24.00
2014,09,21,14,20,24.10
2014,09,21,14,21,24.20
2014,09,21,14,22,24.30
2014,09,21,14,23,24.30
2014,09,21,14,24,24.40
2014,09,21,14,25,24.40
2014,09,21,14,26,24.50
2014,09,21,14,27,24.60
2014,09,21,14,28,24.70
2014,09,21,14,29,24.80
2014,09,21,14,30,24.80
2014,09,21,14,31,24.90
2014,09,21,14,32,24.90
2014,09,21,14,33,25.00
2014,09,21,14,34,25.00
2014,09,21,14,35,25.10
2014,09,21,14,36,25.20
2014,09,21,14,37,25.40
2014,09,21,14,38,25.60
2014,09,21,14,39,25.70
2014,09,21,14,40,25.70
2014,09,21,14,41,25.60
2014,09,21,14,42,25.60
2014,09,21,14,43,25.70
2014,09,21,14,44,25.90
2014,09,21,14,45,26.10
2014,09,21,14,46,26.30
2014,09,21,14,47,26.50
2014,09,21,14,48,26.60
2014,09,21,14,49,26.80
2014,09,21,14,50,27.00
2014,09,21,14,51,26.90
2014,09,21,14,52,26.70
2014,09,21,14,53,26.60
2014,09,21,14,54,26.40
2014,09,21,14,55,26.20
2014,09,21,14,56,25.90
2014,09,21,14,57,25.50
2014,09,21,14,58,25.30
2014,09,21,14,59,25.10
2014,09,21,15,00,24.90
2014,09,21,15,01,24.90
2014,09,21,15,02,24.80
2014,09,21,15,03,24.70
2014,09,21,15,04,24.60
2014,09,21,15,05,24.60
2014,09,21,15,06,24.60
2014,09,21,15,07,24.60
2014,09,21,15,08,24.60
2014,09,21,15,09,24.60
2014,09,21,15,10,24.60
2014,09,21,15,11,24.50
2014,09,21,15,12,24.40
2014,09,21,15,13,24.40
2014,09,21,15,14,24.30
2014,09,21,15,15,24.30
2014,09,21,15,16,24.20
2014,09,21,15,17,24.10
2014,09,21,15,18,24.10
2014,09,21,15,19,24.10
2014,09,21,15,20,24.10
2014,09,21,15,21,24.10
2014,09,21,15,22,24.10
2014,09,21,15,23,24.10
2014,09,21,15,24,24.10
2014,09,21,15,25,24.10
2014,09,21,15,26,24.10
2014,09,21,15,27,24.20
2014,09,21,15,28,24.20
2014,09,21,15,29,24.20
2014,09,21,15,30,24.20
2014,09,21,15,31,24.20
2014,09,21,15,32,24.20
2014,09,21,15,33,24.20
2014,09,21,15,34,24.30
2014,09,21,15,35,24.30
2014,09,21,15,36,24.30
2014,09,21,15,37,24.40
2014,09,21,15,38,24.50
2014,09,21,15,39,24.60
2014,09,21,15,40,24.70
2014,09,21,15,41,24.80
2014,09,21,15,42,25.00
2014,09,21,15,43,25.10
2014,09,21,15,44,25.20
2014,09,21,15,45,25.30
2014,09,21,15,46,25.40
2014,09,21,15,47,25.40
2014,09,21,15,48,25.50
2014,09,21,15,49,25.60
2014,09,21,15,50,25.70
2014,09,21,15,51,25.80
2014,09,21,15,52,26.00
2014,09,21,15,53,26.10
2014,09,21,15,54,26.10
2014,09,21,15,55,26.10
2014,09,21,15,56,26.10
2014,09,21,15,57,26.10
2014,09,21,15,58,26.10
2014,09,21,15,59,26.10
2014,09,21,16,00,26.10
2014,09,21,16,01,26.20
2014,09,21,16,02,26.20
2014,09,21,16,03,26.20
2014,09,21,16,04,26.20
2014,09,21,16,05,26.10
2014,09,21,16,06,26.10
2014,09,21,16,07,26.10
2014,09,21,16,08,26.10
2014,09,21,16,09,26.10
2014,09,21,16,10,26.20
2014,09,21,16,11,26.30
2014,09,21,16,12,26.40
2014,09,21,16,13,26.50
2014,09,21,16,14,26.60
2014,09,21,16,15,26.70
2014,09,21,16,16,26.70
2014,09,21,16,17,26.80
2014,09,21,16,18,26.80
2014,09,21,16,19,26.90
2014,09,21,16,20,26.90
2014,09,21,16,21,26.90
2014,09,21,16,22,26.90
2014,09,21,16,23,26.90
2014,09,21,16,24,27.00
2014,09,21,16,25,27.10
2014,09,21,16,26,27.10
2014,09,21,16,27,27.30
2014,09,21,16,28,27.40
2014,09,21,16,29,27.40
2014,09,21,16,30,27.40
2014,09,21,16,31,27.40
2014,09,21,16,32,27.30
2014,09,21,16,33,27.20
2014,09,21,16,34,27.10
2014,09,21,16,35,27.10
2014,09,21,16,36,27.10
2014,09,21,16,37,27.00
2014,09,21,16,38,27.10
2014,09,21,16,39,27.00
2014,09,21,16,40,27.00
2014,09,21,16,41,27.00
2014,09,21,16,42,27.00
2014,09,21,16,43,27.10
2014,09,21,16,44,27.10
2014,09,21,16,45,27.10
2014,09,21,16,46,27.20
2014,09,21,16,47,27.20
2014,09,21,16,48,27.20
2014,09,21,16,49,27.20
2014,09,21,16,50,27.10
2014,09,21,16,51,27.10
2014,09,21,16,52,27.10
2014,09,21,16,53,27.10
2014,09,21,16,54,27.10
2014,09,21,16,55,27.00
2014,09,21,16,56,27.00
2014,09,21,16,57,27.00
2014,09,21,16,58,26.90
2014,09,21,16,59,26.90
2014,09,21,17,00,26.90
2014,09,21,17,01,26.90
2014,09,21,17,02,26.80
2014,09,21,17,03,26.80
2014,09,21,17,04,26.80
2014,09,21,17,05,26.80
2014,09,21,17,06,26.80
2014,09,21,17,07,26.80
2014,09,21,17,08,26.80
2014,09,21,17,09,26.80
2014,09,21,17,10,26.80
2014,09,21,17,11,26.80
2014,09,21,17,12,26.90
2014,09,21,17,13,26.90
2014,09,21,17,14,26.90
2014,09,21,17,15,26.90
2014,09,21,17,16,26.90
2014,09,21,17,17,26.90
2014,09,21,17,18,26.90
2014,09,21,17,19,26.90
2014,09,21,17,20,26.90
2014,09,21,17,21,26.90
2014,09,21,17,22,27.00